DW7076 Floda SE current weather conditions

sailwx.info

Wind from 151 at 0 knots gusting 2

Air temperature 10.6° C
Dewpoint 10.1° C

Last reported at 2014-Oct-25 10:46 UTC.
Time now 2014-Oct-25 11:14 UTC

Location: N 57°49' E 012°21'.
View on Google Maps.

See reports from other nearby stations

  
Tides and Currents Weather Stations Pressure Air Temp Water Temp Dewpoint Dewpoint Depression Visibility Wind Speed Wind Dir Waves Ship Positions
date/time (UTC)wind fromknots sea level pressurealtimeterstation pressurevisibilityair tempwater tempwave heightnotes
2014-Oct-25 10:46 151 0 gusting 2 10.6
2014-Oct-25 10:36 148 10.6
2014-Oct-25 10:26 142 2 gusting 6 10.6
2014-Oct-25 10:16 168 2 gusting 6 10.6
2014-Oct-25 10:06 182 2 gusting 8 10.0
2014-Oct-25 09:56 158 1 gusting 8 10.0
2014-Oct-25 09:46 189 1 gusting 6 10.0
2014-Oct-25 09:36 165 2 gusting 6 10.0
2014-Oct-25 09:26 139 0 gusting 8 10.0
2014-Oct-25 09:16 147 2 gusting 10 10.0
2014-Oct-25 09:06 158 3 gusting 8 10.0
2014-Oct-25 08:56 143 3 gusting 8 10.0
2014-Oct-25 08:46 142 2 gusting 14 10.0
2014-Oct-25 08:36 163 4 gusting 7 10.0
2014-Oct-25 08:26 155 3 gusting 10 10.0
2014-Oct-25 08:16 181 5 gusting 12 10.0
2014-Oct-25 08:06 165 4 gusting 7 10.0
2014-Oct-25 07:56 152 4 gusting 8 10.0
2014-Oct-25 07:46 171 2 gusting 11 10.0
2014-Oct-25 07:36 181 1 gusting 6 10.0
2014-Oct-25 07:26 153 3 gusting 11 9.4
2014-Oct-25 07:16 156 4 gusting 10 9.4
2014-Oct-25 07:06 152 4 gusting 10 9.4
2014-Oct-25 06:56 203 1 gusting 10 9.4
2014-Oct-25 06:46 174 5 gusting 8 9.4
2014-Oct-25 06:36 177 2 gusting 10 9.4
2014-Oct-25 06:26 157 4 gusting 7 9.4
2014-Oct-25 06:16 146 2 gusting 10 9.4
2014-Oct-25 06:06 165 3 gusting 8 9.4
2014-Oct-25 05:56 162 2 gusting 11 9.4
2014-Oct-25 05:46 181 4 gusting 10 9.4
2014-Oct-25 05:36 130 2 gusting 12 9.4
2014-Oct-25 05:26 153 4 gusting 11 9.4
2014-Oct-25 05:16 169 2 gusting 8 9.4
2014-Oct-25 05:06 162 3 gusting 13 9.4
2014-Oct-25 04:56 151 4 gusting 10 9.4
2014-Oct-25 04:46 151 1 gusting 12 9.4
2014-Oct-25 04:36 157 2 gusting 10 9.4
2014-Oct-25 04:26 174 5 gusting 11 9.4
2014-Oct-25 04:16 171 2 gusting 11 9.4
2014-Oct-25 04:06 165 4 gusting 10 9.4
2014-Oct-25 03:56 172 2 gusting 14 9.4
2014-Oct-25 03:46 161 3 gusting 10 10.0
2014-Oct-25 03:36 170 2 gusting 8 10.0
2014-Oct-25 03:26 174 1 gusting 13 10.0
2014-Oct-25 03:16 176 3 gusting 11 10.0
2014-Oct-25 03:06 150 5 gusting 12 10.0
2014-Oct-25 02:56 181 6 gusting 11 10.0
2014-Oct-25 02:46 168 4 gusting 13 10.0
2014-Oct-25 02:36 190 5 gusting 13 10.0
2014-Oct-25 02:26 168 5 gusting 15 10.0
2014-Oct-25 02:16 168 6 gusting 11 10.0
2014-Oct-25 02:06 185 4 gusting 12 10.0
2014-Oct-25 01:56 165 5 gusting 13 10.0
2014-Oct-25 01:46 169 4 gusting 13 10.0
2014-Oct-25 01:36 177 5 gusting 11 10.0
2014-Oct-25 01:26 164 4 gusting 13 10.0
2014-Oct-25 01:16 164 4 gusting 7 10.0
2014-Oct-25 01:06 167 6 gusting 13 10.0
2014-Oct-25 00:56 154 6 gusting 12 10.0
2014-Oct-25 00:46 187 4 gusting 13 10.0
2014-Oct-25 00:36 154 5 gusting 13 10.0
2014-Oct-25 00:26 189 5 gusting 15 10.0
2014-Oct-25 00:16 166 4 gusting 12 10.0
2014-Oct-25 00:06 154 4 gusting 12 10.0
2014-Oct-24 23:56 160 4 gusting 13 10.0
2014-Oct-24 23:46 171 5 gusting 14 10.0
2014-Oct-24 23:36 128 3 gusting 19 10.0
2014-Oct-24 23:26 140 4 gusting 12 10.0
2014-Oct-24 23:16 156 2 gusting 13 10.0
2014-Oct-24 23:06 188 2 gusting 13 10.6
2014-Oct-24 22:56 165 5 gusting 15 10.6
2014-Oct-24 22:46 157 5 gusting 11 10.6
2014-Oct-24 22:36 148 5 gusting 12 10.6
2014-Oct-24 22:26 172 3 gusting 17 10.6
2014-Oct-24 22:16 173 4 gusting 11 10.6
2014-Oct-24 22:06 167 6 gusting 13 10.6
2014-Oct-24 21:56 173 4 gusting 13 10.6
2014-Oct-24 21:46 168 5 gusting 13 10.6
2014-Oct-24 21:36 169 2 gusting 10 10.6
2014-Oct-24 21:26 147 5 gusting 12 10.6
2014-Oct-24 21:16 175 5 gusting 12 10.6
2014-Oct-24 21:06 165 2 gusting 13 10.6
2014-Oct-24 20:56 158 4 gusting 12 10.6
2014-Oct-24 20:46 165 4 gusting 11 10.6
2014-Oct-24 20:36 160 5 gusting 10 10.6
2014-Oct-24 20:26 150 5 gusting 11 10.6
2014-Oct-24 20:16 185 5 gusting 17 10.6
2014-Oct-24 20:06 160 5 gusting 13 10.6
2014-Oct-24 19:56 186 5 gusting 15 10.6
2014-Oct-24 19:46 164 4 gusting 12 10.6
2014-Oct-24 19:36 152 4 gusting 14 10.6
2014-Oct-24 19:26 171 6 gusting 17 10.6
2014-Oct-24 19:16 147 6 gusting 13 10.6
2014-Oct-24 19:06 182 2 gusting 14 10.6
2014-Oct-24 18:56 160 3 gusting 10 10.6
2014-Oct-24 18:46 161 3 gusting 13 10.6
2014-Oct-24 18:36 178 6 gusting 11 10.6
2014-Oct-24 18:26 183 5 gusting 12 10.6
2014-Oct-24 18:16 163 5 gusting 14 10.6
2014-Oct-24 18:06 162 4 gusting 17 10.6
2014-Oct-24 17:56 183 6 gusting 14 10.6
2014-Oct-24 17:46 173 4 gusting 12 10.6
2014-Oct-24 17:36 175 5 gusting 13 10.6
2014-Oct-24 17:26 156 6 gusting 13 10.6
2014-Oct-24 17:16 151 4 gusting 11 10.6
2014-Oct-24 17:06 188 5 gusting 14 10.6
2014-Oct-24 16:56 142 4 gusting 15 10.6
2014-Oct-24 16:46 180 5 gusting 12 10.6
2014-Oct-24 16:36 154 2 gusting 11 10.6
2014-Oct-24 16:26 165 1 gusting 10 10.6
2014-Oct-24 16:16 158 2 gusting 8 10.6
2014-Oct-24 16:06 172 5 gusting 10 10.6
2014-Oct-24 15:56 147 3 gusting 10 10.6
2014-Oct-24 15:46 133 5 gusting 13 10.6
2014-Oct-24 15:36 160 5 gusting 18 10.6
2014-Oct-24 15:26 165 4 gusting 10 11.1
2014-Oct-24 15:16 155 4 gusting 12 11.1
2014-Oct-24 15:06 179 4 gusting 12 11.1
2014-Oct-24 14:56 149 4 gusting 10 11.1
2014-Oct-24 14:46 166 6 gusting 14 11.1
2014-Oct-24 14:16 171 4 gusting 10 11.1
2014-Oct-24 14:06 158 5 gusting 12 11.1
2014-Oct-24 13:56 187 2 gusting 10 11.1
2014-Oct-24 13:46 190 2 gusting 11 11.1
2014-Oct-24 13:36 158 2 gusting 11 11.1
2014-Oct-24 13:26 152 4 gusting 12 11.1
2014-Oct-24 13:16 191 6 gusting 12 11.1
2014-Oct-24 13:06 166 4 gusting 13 11.1
2014-Oct-24 12:56 155 4 gusting 10 11.1
2014-Oct-24 12:46 156 4 gusting 12 11.1
2014-Oct-24 12:36 150 3 gusting 8 11.1
2014-Oct-24 12:26 170 2 gusting 13 11.1
2014-Oct-24 12:16 162 2 gusting 11 11.1
2014-Oct-24 12:06 162 3 gusting 11 11.1
2014-Oct-24 11:56 185 3 gusting 10 10.6
2014-Oct-24 11:46 171 2 gusting 12 10.6
2014-Oct-24 11:36 158 4 gusting 8 10.6
2014-Oct-24 11:26 158 4 gusting 10 10.6
2014-Oct-24 11:16 148 3 gusting 12 10.6
2014-Oct-24 11:06 169 2 gusting 11 10.6
2014-Oct-24 10:56 183 5 gusting 13 10.6
2014-Oct-24 10:46 143 4 gusting 13 10.6
2014-Oct-24 10:36 158 1 gusting 8 10.6
2014-Oct-24 10:26 149 2 gusting 12 10.6
2014-Oct-24 10:16 187 5 gusting 11 10.6
2014-Oct-24 10:06 157 2 gusting 11 10.6
2014-Oct-24 09:56 178 6 gusting 17 10.6
2014-Oct-24 09:46 144 4 gusting 13 10.0
2014-Oct-24 09:36 152 4 gusting 10 10.0
2014-Oct-24 09:26 174 2 gusting 7 10.0
2014-Oct-24 09:16 189 2 gusting 13 10.0
2014-Oct-24 09:06 138 3 gusting 12 10.0
2014-Oct-24 08:56 163 5 gusting 13 10.0
2014-Oct-24 08:46 169 4 gusting 14 9.4
2014-Oct-24 08:36 138 2 gusting 8 9.4
2014-Oct-24 08:26 162 4 gusting 17 9.4
2014-Oct-24 08:16 186 4 gusting 8 9.4
2014-Oct-24 08:06 143 2 gusting 11 9.4
2014-Oct-24 07:56 151 4 gusting 10 9.4
2014-Oct-24 07:46 157 2 gusting 13 9.4
2014-Oct-24 07:36 137 4 gusting 10 9.4
2014-Oct-24 07:26 183 4 gusting 13 9.4
2014-Oct-24 07:16 163 3 gusting 10 8.9
2014-Oct-24 07:06 172 2 gusting 11 8.9
2014-Oct-24 06:56 153 2 gusting 10 8.9
2014-Oct-24 06:46 162 3 gusting 10 8.9
2014-Oct-24 06:36 146 2 gusting 11 8.9
2014-Oct-24 06:26 120 3 gusting 11 8.9
2014-Oct-24 06:16 132 2 gusting 11 8.9
2014-Oct-24 06:06 143 2 gusting 10 8.9
2014-Oct-24 05:56 211 2 gusting 11 8.9
2014-Oct-24 05:46 133 3 gusting 11 8.9
2014-Oct-24 05:36 155 3 gusting 10 8.3
2014-Oct-24 05:26 158 5 gusting 11 8.3
2014-Oct-24 05:16 159 2 gusting 10 8.3
2014-Oct-24 05:06 135 5 gusting 12 8.3
2014-Oct-24 04:56 161 5 gusting 12 8.3
2014-Oct-24 04:46 119 2 gusting 10 8.3
2014-Oct-24 04:36 163 2 gusting 11 8.3
2014-Oct-24 04:26 176 4 gusting 17 8.3
2014-Oct-24 04:16 162 4 gusting 12 8.3
2014-Oct-24 04:06 154 2 gusting 10 8.3
2014-Oct-24 03:56 146 2 gusting 11 8.3
2014-Oct-24 03:46 138 4 gusting 13 8.3
2014-Oct-24 03:36 170 2 gusting 7 8.3
2014-Oct-24 03:26 171 5 gusting 13 8.3
2014-Oct-24 03:16 141 2 gusting 8 7.8
2014-Oct-24 03:06 189 2 gusting 7 7.8
2014-Oct-24 02:56 150 1 gusting 14 7.8
2014-Oct-24 02:46 167 2 gusting 8 7.8
2014-Oct-24 02:36 138 0 gusting 11 7.8
2014-Oct-24 02:26 182 4 gusting 11 7.8
2014-Oct-24 02:16 142 2 gusting 12 7.8
2014-Oct-24 02:06 170 5 gusting 10 7.8
2014-Oct-24 01:56 164 3 gusting 13 7.8
2014-Oct-24 01:46 163 4 gusting 12 7.8
2014-Oct-24 01:36 169 2 gusting 11 7.8
2014-Oct-24 01:26 165 2 gusting 10 7.8
2014-Oct-24 01:16 148 7 gusting 14 7.8
2014-Oct-24 01:06 198 5 gusting 10 7.8
2014-Oct-24 00:56 115 4 gusting 13 7.8
2014-Oct-24 00:46 153 6 gusting 20 7.8
2014-Oct-24 00:36 156 5 gusting 12 7.8
2014-Oct-24 00:26 175 5 gusting 14 7.8
2014-Oct-24 00:16 173 6 gusting 11 7.8
2014-Oct-24 00:06 145 4 gusting 13 7.8
2014-Oct-23 23:56 162 5 gusting 12 7.8
2014-Oct-23 23:46 179 2 gusting 12 7.8
2014-Oct-23 23:36 159 2 gusting 14 7.8
2014-Oct-23 23:26 176 4 gusting 13 7.8
2014-Oct-23 23:16 150 5 gusting 10 7.8
2014-Oct-23 23:06 170 4 gusting 12 7.8
2014-Oct-23 22:56 143 4 gusting 11 7.8
2014-Oct-23 22:46 182 6 gusting 15 7.8
2014-Oct-23 22:36 140 2 gusting 11 7.8
2014-Oct-23 22:26 169 6 gusting 14 7.8
2014-Oct-23 22:16 164 5 gusting 12 7.8
2014-Oct-23 22:06 112 1 gusting 13 7.2
2014-Oct-23 21:56 147 5 gusting 12 7.2
2014-Oct-23 21:46 140 2 gusting 13 7.2
2014-Oct-23 21:36 165 2 gusting 11 7.2
2014-Oct-23 21:26 147 4 gusting 13 7.2
2014-Oct-23 21:16 172 4 gusting 13 7.2
2014-Oct-23 21:06 139 1 gusting 11 7.2
2014-Oct-23 20:56 175 4 gusting 10 7.2
2014-Oct-23 20:46 148 2 gusting 11 7.2
2014-Oct-23 20:36 145 4 gusting 12 7.2
2014-Oct-23 20:26 159 3 gusting 11 7.2
2014-Oct-23 20:16 168 2 gusting 8 7.2
2014-Oct-23 20:06 152 3 gusting 13 7.2
2014-Oct-23 19:56 160 4 gusting 8 7.2
2014-Oct-23 19:46 119 4 gusting 10 7.8
2014-Oct-23 19:36 133 2 gusting 8 7.8
2014-Oct-23 19:26 145 5 gusting 13 7.8
2014-Oct-23 19:16 178 2 gusting 10 7.8
2014-Oct-23 19:06 177 4 gusting 10 7.8
2014-Oct-23 18:56 165 4 gusting 11 7.8
2014-Oct-23 18:46 159 4 gusting 8 7.8
2014-Oct-23 18:26 129 1 gusting 10 7.8
2014-Oct-23 18:16 168 5 gusting 12 7.8
2014-Oct-23 18:06 176 4 gusting 10 7.8
2014-Oct-23 17:56 168 2 gusting 10 8.3
2014-Oct-23 17:46 135 3 gusting 15 8.3
2014-Oct-23 17:36 120 4 gusting 10 8.3
2014-Oct-23 17:26 118 2 gusting 10 8.3
2014-Oct-23 17:16 167 4 gusting 10 8.3
2014-Oct-23 17:06 162 5 gusting 15 8.3
2014-Oct-23 16:56 123 6 gusting 15 8.3
2014-Oct-23 16:46 170 5 gusting 13 8.3
2014-Oct-23 16:36 159 5 gusting 10 8.3
2014-Oct-23 16:26 168 2 gusting 10 8.3
2014-Oct-23 16:16 163 1 gusting 10 8.3
2014-Oct-23 16:06 150 3 gusting 8 8.3
2014-Oct-23 15:56 148 5 gusting 12 8.3
2014-Oct-23 15:46 117 2 gusting 10 8.3
2014-Oct-23 15:36 168 4 gusting 15 8.3
2014-Oct-23 15:26 185 5 gusting 13 8.3
2014-Oct-23 15:16 149 5 gusting 13 8.3
2014-Oct-23 15:06 162 3 gusting 13 8.3
2014-Oct-23 14:56 131 2 gusting 11 8.3
2014-Oct-23 14:46 165 3 gusting 10 8.3
2014-Oct-23 14:36 159 2 gusting 11 8.3
2014-Oct-23 14:26 179 4 gusting 13 8.3
2014-Oct-23 14:16 134 3 gusting 12 8.3
2014-Oct-23 14:06 140 2 gusting 12 8.3
2014-Oct-23 13:56 054 1 gusting 10 8.3
2014-Oct-23 13:46 135 4 gusting 10 8.3
2014-Oct-23 13:36 143 2 gusting 6 8.3
2014-Oct-23 13:26 172 1 gusting 10 8.3
2014-Oct-23 13:16 153 2 gusting 10 8.3
2014-Oct-23 13:06 105 2 gusting 7 8.3
2014-Oct-23 12:56 114 4 gusting 10 8.3
2014-Oct-23 12:46 160 3 gusting 10 8.3
2014-Oct-23 12:36 122 4 gusting 8 8.3
2014-Oct-23 12:26 127 3 gusting 12 8.3
2014-Oct-23 12:16 130 1 gusting 6 8.3
2014-Oct-23 12:06 137 2 gusting 6 7.8
2014-Oct-23 11:56 119 4 gusting 11 7.8
2014-Oct-23 11:46 131 4 gusting 10 7.8
2014-Oct-23 11:36 148 4 gusting 11 7.8
2014-Oct-23 11:26 141 1 gusting 8 7.8
2014-Oct-23 11:16 101 2 gusting 10 7.8
2014-Oct-23 11:06 180 2 gusting 7 7.8